Weather History for Clinton, MO

Change the Weather History Date:

Tuesday, June 18, 2013

  Actual Average (KSZL) Record (KSZL)
Temperature  
Mean Temperature 74 °F -  
Max Temperature 86 °F 81 °F 93 °F (2012)
Min Temperature 62 °F 63 °F 53 °F (1999)
Cooling Degree Days 9    
Growing Degree Days 24 (Base 50)    
Moisture  
Dew Point 67 °F    
Average Humidity 80    
Maximum Humidity 100    
Minimum Humidity 48    
Precipitation  
Precipitation 0.00 in - - ()
Sea Level Pressure  
Sea Level Pressure 30.00 in    
Wind  
Wind Speed 2 mph (NNW)    
Max Wind Speed 9 mph    
Max Gust Speed -    
Visibility 8 miles    
Events Fog , Rain , Thunderstorm    
Averages and records for this station are not official NWS values.
T = Trace of Precipitation, MM = Missing Value Source: NWS Daily Summary

Daily Weather History Graph

Daily Weather History Graph

Search for Another Location

Airport:

Trip Planner

Search our weather history database for the weather conditions in past years. The results will help you decide how hot, cold, wet, or windy it might be!

Date:

Astronomy

Jun. 18, 2013 Rise Set
Actual Time 5:50 AM CDT 8:41 PM CDT
Civil Twilight 5:19 AM CDT 9:12 PM CDT
Nautical Twilight 4:39 AM CDT 9:52 PM CDT
Astronomical Twilight 3:53 AM CDT 10:38 PM CDT
Moon 3:29 PM CDT (6/18) 1:56 AM CDT (6/18)
Length of Visible Light 15h 53m
Length of Day
14h 50m
Waxing Gibbous, 71% of the Moon is Illuminated
Jun 18
Waxing Gibbous
Jun 23
Full
Jun 29
Last Quarter
Jul 8
New
Jul 15
First Quarter

Hourly Weather History & Observations

Time (CDT) Temp. Heat Index Dew Point Humidity Pressure Visibility Wind Dir Wind Speed Gust Speed Precip Events Conditions
12:15 AM 68.0 °F - 64.4 °F 88% 29.99 in 10.0 mi Calm Calm - N/A   Clear
12:35 AM 66.2 °F - 64.4 °F 94% 29.98 in 10.0 mi Calm Calm - N/A   Clear
12:55 AM 66.2 °F - 64.4 °F 94% 29.98 in 10.0 mi Calm Calm - N/A   Clear
1:15 AM 64.4 °F - 64.4 °F 100% 29.99 in 9.0 mi Calm Calm - N/A   Clear
1:35 AM 64.4 °F - 64.4 °F 100% 29.99 in 9.0 mi Calm Calm - N/A   Clear
1:55 AM 64.4 °F - 64.4 °F 100% 30.00 in 8.0 mi Calm Calm - N/A   Clear
2:15 AM 64.4 °F - 64.4 °F 100% 30.00 in 8.0 mi Calm Calm - N/A   Clear
2:35 AM 64.4 °F - 64.4 °F 100% 30.00 in 8.0 mi Calm Calm - N/A   Clear
2:55 AM 64.4 °F - 64.4 °F 100% 30.00 in 8.0 mi Calm Calm - N/A   Clear
3:15 AM 64.4 °F - 64.4 °F 100% 29.99 in 6.0 mi Calm Calm - N/A   Clear
3:35 AM 64.4 °F - 64.4 °F 100% 29.98 in 6.0 mi Calm Calm - N/A   Clear
3:55 AM 62.6 °F - 62.6 °F 100% 29.99 in 2.0 mi Calm Calm - N/A   Clear
4:15 AM 64.4 °F - 64.4 °F 100% 29.99 in 3.0 mi Calm Calm - N/A   Clear
4:35 AM 62.6 °F - 62.6 °F 100% 29.99 in 0.5 mi Calm Calm - N/A Fog Fog
4:55 AM 62.6 °F - 62.6 °F 100% 29.98 in 1.0 mi Calm Calm - N/A   Clear
5:15 AM 62.6 °F - 62.6 °F 100% 29.99 in 2.5 mi Calm Calm - N/A   Clear
5:35 AM 62.6 °F - 62.6 °F 100% 29.99 in 1.2 mi Calm Calm - N/A   Clear
5:55 AM 62.6 °F - 62.6 °F 100% 30.00 in 4.0 mi Calm Calm - N/A   Clear
6:15 AM 62.6 °F - 62.6 °F 100% 30.00 in 0.8 mi Calm Calm - N/A   Mist
6:35 AM 62.6 °F - 62.6 °F 100% 30.00 in 5.0 mi Calm Calm - N/A   Clear
6:55 AM 64.4 °F - 64.4 °F 100% 30.00 in 7.0 mi Calm Calm - N/A   Clear
7:15 AM 66.2 °F - 66.2 °F 100% 30.01 in 7.0 mi Calm Calm - N/A   Clear
7:35 AM 68.0 °F - 68.0 °F 100% 30.01 in 7.0 mi Calm Calm - N/A   Clear
7:55 AM 69.8 °F - 68.0 °F 94% 30.02 in 8.0 mi Calm Calm - N/A   Clear
8:15 AM 71.6 °F - 68.0 °F 88% 30.02 in 9.0 mi NW 4.6 mph - N/A   Clear
8:35 AM 73.4 °F - 69.8 °F 88% 30.02 in 8.0 mi NW 3.5 mph - N/A   Clear
8:55 AM 75.2 °F - 69.8 °F 83% 30.03 in 8.0 mi NW 8.1 mph - N/A   Clear
9:15 AM 75.2 °F - 69.8 °F 83% 30.03 in 9.0 mi NW 5.8 mph - N/A   Clear
9:35 AM 77.0 °F - 69.8 °F 78% 30.03 in 7.0 mi NW 5.8 mph - N/A   Clear
9:55 AM 78.8 °F - 69.8 °F 74% 30.03 in 8.0 mi Calm Calm - N/A   Clear
10:15 AM 78.8 °F - 69.8 °F 74% 30.03 in 9.0 mi NNW 5.8 mph - N/A   Clear
10:35 AM 80.6 °F 83.9 °F 69.8 °F 70% 30.03 in 10.0 mi NNW 4.6 mph - N/A   Clear
10:55 AM 80.6 °F 83.9 °F 69.8 °F 70% 30.03 in 9.0 mi Calm Calm - N/A   Clear
11:15 AM 80.6 °F 83.9 °F 69.8 °F 70% 30.03 in 8.0 mi WNW 3.5 mph - N/A   Clear
11:35 AM 82.4 °F 87.2 °F 71.6 °F 70% 30.03 in 8.0 mi Calm Calm - N/A   Clear
11:55 AM 84.2 °F 88.4 °F 69.8 °F 62% 30.03 in 8.0 mi NW 6.9 mph - N/A   Clear
12:15 PM 84.2 °F 88.4 °F 69.8 °F 62% 30.03 in 9.0 mi NW 3.5 mph - N/A   Clear
12:35 PM 84.2 °F 88.4 °F 69.8 °F 62% 30.03 in 10.0 mi North 3.5 mph - N/A   Clear
12:55 PM 84.2 °F 87.3 °F 68.0 °F 58% 30.03 in 9.0 mi NNW 4.6 mph - N/A   Scattered Clouds
1:15 PM 84.2 °F 88.4 °F 69.8 °F 62% 30.03 in 8.0 mi NW 8.1 mph - N/A   Scattered Clouds
1:35 PM 86.0 °F 89.4 °F 68.0 °F 55% 30.03 in 9.0 mi North 6.9 mph - N/A   Partly Cloudy
1:55 PM 84.2 °F 86.6 °F 66.2 °F 55% 30.02 in 10.0 mi NNW 8.1 mph - N/A   Partly Cloudy
2:15 PM 86.0 °F 90.4 °F 69.8 °F 58% 30.02 in 9.0 mi North 8.1 mph - N/A   Mostly Cloudy
2:35 PM 84.2 °F 88.4 °F 69.8 °F 62% 30.01 in 7.0 mi NE 5.8 mph - N/A   Partly Cloudy
2:55 PM 84.2 °F 88.4 °F 69.8 °F 62% 30.01 in 9.0 mi NNE 4.6 mph - N/A   Partly Cloudy
3:15 PM 86.0 °F 89.4 °F 68.0 °F 55% 30.00 in 10.0 mi NNW 4.6 mph - N/A   Clear
3:35 PM 86.0 °F 88.2 °F 66.2 °F 51% 29.99 in 9.0 mi Calm Calm - N/A   Clear
3:55 PM 86.0 °F 87.3 °F 64.4 °F 48% 29.98 in 9.0 mi NNE 9.2 mph - N/A   Clear
4:15 PM 84.2 °F 86.6 °F 66.2 °F 55% 29.99 in 9.0 mi North 6.9 mph - N/A   Clear
4:35 PM 82.4 °F 84.6 °F 66.2 °F 58% 29.99 in 8.0 mi Calm Calm - N/A   Clear
4:55 PM 84.2 °F 85.6 °F 64.4 °F 51% 29.99 in 8.0 mi NE 8.1 mph - N/A   Clear
5:15 PM 86.0 °F 87.3 °F 64.4 °F 48% 29.98 in 9.0 mi NNE 9.2 mph - N/A   Clear
5:35 PM 86.0 °F 87.3 °F 64.4 °F 48% 29.97 in 9.0 mi NE 9.2 mph - N/A   Clear
5:55 PM 84.2 °F 85.6 °F 64.4 °F 51% 29.98 in 9.0 mi NNE 9.2 mph - N/A   Clear
6:15 PM 84.2 °F 85.6 °F 64.4 °F 51% 30.00 in 9.0 mi NNE 6.9 mph - N/A   Clear
6:35 PM 82.4 °F 83.9 °F 64.4 °F 54% 29.99 in 9.0 mi SE 5.8 mph - N/A   Clear
6:55 PM 78.8 °F - 69.8 °F 74% 30.01 in 8.0 mi Calm Calm - N/A   Partly Cloudy
7:15 PM 77.0 °F - 68.0 °F 74% 30.02 in 9.0 mi SSW 8.1 mph - N/A   Clear
7:35 PM 75.2 °F - 66.2 °F 73% 30.01 in 9.0 mi SSW 4.6 mph - N/A Thunderstorm Clear
7:55 PM 75.2 °F - 66.2 °F 73% 30.00 in 8.0 mi SSW 5.8 mph - N/A Rain Light Rain
8:15 PM 73.4 °F - 68.0 °F 83% 30.00 in 6.0 mi SW 6.9 mph - N/A   Light Drizzle
8:35 PM 73.4 °F - 68.0 °F 83% 30.00 in 7.0 mi SW 6.9 mph - N/A   Light Drizzle
8:55 PM 73.4 °F - 68.0 °F 83% 29.99 in 8.0 mi SW 5.8 mph - N/A   Light Drizzle
9:15 PM 71.6 °F - 66.2 °F 83% 29.98 in 10.0 mi Calm Calm - N/A   Clear
9:35 PM 71.6 °F - 68.0 °F 88% 29.99 in 10.0 mi Calm Calm - N/A   Clear
9:55 PM 71.6 °F - 68.0 °F 88% 30.00 in 10.0 mi Calm Calm - N/A   Clear
10:15 PM 71.6 °F - 69.8 °F 94% 30.00 in 10.0 mi Calm Calm - N/A   Clear
10:35 PM 69.8 °F - 68.0 °F 94% 30.01 in 10.0 mi Calm Calm - N/A   Clear
10:55 PM 69.8 °F - 69.8 °F 100% 30.01 in 9.0 mi Calm Calm - N/A   Clear
11:15 PM 69.8 °F - 69.8 °F 100% 30.00 in 9.0 mi Calm Calm - N/A   Clear
11:35 PM 69.8 °F - 69.8 °F 100% 30.00 in 8.0 mi Calm Calm - N/A   Clear
11:55 PM 69.8 °F - 69.8 °F 100% 30.00 in 8.0 mi Calm Calm - N/A   Clear